Theta_e
319 319 320 320 319 320 320 319 320 320 320 320 319 318 317 315 315 317 317 315 312 310 311 311 313 316 316 316 314 312 311 312 311 310 308 307 310 313 314 314 313 312
318 319 320 320 320 321 321 320 320 321 320 321 320 319 319 316 315 317 317 315 312 310 309 308 312 315 315 315 314 311 310 311 312 312 310 306 307 310 314 314 313 312
318 320 321 321 320 320 321 321 320 320 320 321 320 319 320 318 315 316 317 315 313 312 309 307 311 314 314 314 314 313 313 315 316 315 313 310 308 308 311 313 313 312
320 320 321 321 321 320 320 322 320 319 320 321 321 320 320 319 316 315 316 317 315 314 312 309 310 314 314 313 314 314 314 315 315 314 314 314 312 308 308 311 313 313
320 320 320 319 321 320 320 321 321 319 319 320 321 320 320 320 318 317 316 317 316 315 315 312 311 314 314 313 314 315 314 315 313 311 313 314 312 310 307 309 311 312
321 321 319 318 321 321 319 320 321 320 319 319 320 321 320 321 320 319 318 317 317 317 317 316 313 314 315 313 314 315 314 314 313 312 314 312 310 310 309 309 310 310
323 323 322 320 321 322 319 320 321 321 320 319 320 320 320 321 321 321 320 318 318 317 317 318 316 314 315 313 314 315 314 314 313 312 314 312 310 311 310 310 311 311
324 324 324 324 323 323 321 321 321 321 321 320 320 320 320 320 321 321 321 320 319 318 318 318 318 316 315 314 313 314 314 314 314 313 314 313 311 311 310 309 311 311
325 325 325 324 323 323 323 322 322 322 321 320 320 320 320 320 320 319 320 320 320 320 319 319 319 318 317 315 314 314 314 314 314 313 313 313 312 312 310 309 309 309
325 324 324 323 322 322 322 322 322 322 322 321 320 320 320 320 319 319 320 320 320 320 320 319 319 319 318 317 315 314 314 314 315 314 313 313 313 312 311 310 310 309
323 322 323 323 322 322 321 321 321 322 322 321 321 321 321 321 320 320 320 320 320 320 320 319 320 319 319 318 318 316 315 315 315 315 313 312 313 313 312 311 312 310
323 322 323 323 322 321 321 320 321 321 321 321 321 321 322 322 321 321 320 321 321 321 321 320 320 320 319 319 318 317 316 315 315 315 314 312 312 313 312 311 312 311
324 324 324 325 324 322 321 321 320 320 320 320 319 319 321 321 321 322 321 320 319 320 321 321 320 320 320 319 318 317 316 316 315 315 315 314 312 313 312 311 311 311
323 323 323 324 324 324 323 323 322 321 321 320 319 318 319 320 320 321 320 318 317 318 320 320 320 320 320 320 319 318 317 316 316 315 315 314 313 313 312 311 311 310
316 316 316 317 319 320 322 323 322 322 322 321 321 321 320 320 319 319 319 318 317 318 320 320 319 319 320 320 319 319 318 317 316 315 315 314 313 312 312 311 311 310
312 312 313 314 315 316 318 320 320 321 321 321 321 320 321 321 321 321 321 320 320 320 321 320 320 320 320 319 319 320 319 318 317 316 315 314 313 312 312 311 310 310
311 310 311 312 312 313 314 315 316 317 318 320 321 320 320 321 321 322 322 322 322 322 321 321 320 320 319 319 320 320 319 319 318 317 315 314 313 312 312 311 310 309
308 308 308 309 310 310 310 311 312 313 314 316 317 317 318 320 321 322 321 321 322 322 321 321 321 321 320 320 320 320 320 319 318 317 316 314 313 312 312 311 309 308
307 307 307 308 309 309 309 309 310 310 310 311 311 312 314 316 317 319 320 321 322 322 321 321 321 321 321 321 321 320 320 319 318 318 316 314 313 312 311 310 308 307
307 307 307 308 308 308 308 308 308 308 309 309 309 310 311 312 312 314 316 318 319 320 320 320 320 320 321 321 321 321 320 319 318 317 316 314 313 312 311 310 308 307
307 307 308 308 308 307 307 307 307 308 308 309 309 310 310 311 311 311 312 313 315 316 317 318 319 319 319 320 320 320 319 317 316 315 314 313 312 311 310 308 307 306
307 307 308 309 308 308 307 307 307 307 308 308 308 309 309 310 311 311 311 312 313 314 315 316 317 318 318 319 319 319 318 315 313 313 312 311 310 309 308 306 305 305
307 307 308 308 308 308 308 307 307 307 308 308 308 308 308 309 309 310 311 312 312 313 314 316 317 317 318 319 318 318 316 313 312 311 310 308 307 306 306 305 304 304
306 306 307 307 308 308 308 307 307 307 307 307 307 307 307 307 308 308 310 311 312 312 313 315 317 318 318 318 317 315 313 312 310 309 307 306 305 304 304 304 303 303
306 306 306 307 307 307 307 307 307 307 307 306 306 307 307 307 308 308 310 311 311 312 314 315 316 317 317 317 315 312 310 309 308 306 305 303 303 303 303 303 302 302
307 306 306 306 306 306 307 307 307 308 308 307 307 307 307 308 309 310 311 311 311 312 313 314 315 315 313 313 312 310 307 306 305 305 304 303 302 302 301 301 300 300
Wind_Speed
27 25 25 22 20 21 19 18 18 17 15 14 12 11 9 9 9 10 9 7 7 8 9 9 11 11 9 8 6 7 9 10 10 10 10 10 10 10 11 11 11 9
27 24 23 21 19 19 18 17 17 16 15 14 12 11 10 9 9 9 7 6 6 7 7 9 11 10 8 6 5 6 9 10 10 9 9 10 10 11 12 12 10 8
25 23 22 21 20 19 17 17 17 14 14 15 14 12 11 10 9 9 7 5 5 6 6 8 10 9 7 6 5 5 7 9 8 7 6 8 9 10 11 11 10 7
22 22 21 19 19 20 17 16 17 15 13 14 15 13 11 10 9 9 8 6 5 5 5 7 9 9 7 7 6 4 6 6 5 6 6 6 6 6 8 10 9 7
18 18 19 18 17 20 18 16 18 17 14 13 14 13 12 10 10 9 9 7 7 6 5 5 7 8 7 8 8 6 6 6 5 5 6 5 5 3 6 9 9 7
16 16 18 17 16 19 21 18 17 17 15 13 13 12 11 10 9 9 9 8 8 8 8 7 6 8 8 7 9 8 7 7 6 6 6 4 4 3 3 6 7 5
16 16 17 17 16 19 22 19 17 16 15 14 13 12 11 10 9 9 8 8 9 10 10 9 8 9 10 9 9 9 8 8 7 8 8 6 5 5 4 3 4 2
18 16 16 17 17 20 21 20 19 17 16 15 15 13 12 11 10 10 10 10 10 11 12 12 11 10 11 11 10 10 9 9 9 9 10 9 7 7 6 5 5 4
20 18 19 19 18 19 19 19 20 18 17 16 16 15 14 13 13 12 12 12 12 12 13 14 13 12 12 12 12 12 11 11 12 11 11 12 11 10 9 7 7 7
17 15 15 16 17 19 19 18 18 19 19 18 17 17 15 13 14 14 14 13 14 15 15 15 15 16 15 15 14 14 14 14 14 14 13 13 14 13 12 10 10 9
12 11 11 12 15 17 18 17 17 17 17 17 17 17 15 13 13 13 13 13 14 16 16 16 17 18 18 19 18 17 17 17 17 17 16 15 16 15 13 13 13 11
7 8 9 10 12 13 14 14 15 15 15 15 15 15 14 14 15 15 13 11 12 13 14 15 17 20 21 21 21 20 20 20 20 21 19 16 17 16 13 13 14 11
8 7 7 7 8 8 9 10 11 13 14 16 15 14 14 15 17 17 15 13 13 13 13 13 16 21 22 21 21 21 21 21 22 22 21 19 18 17 15 14 13 12
10 9 8 7 7 7 7 7 8 11 13 15 15 16 17 18 19 19 19 18 18 17 17 17 16 18 21 22 22 22 22 23 23 24 22 20 20 19 17 16 15 13
8 7 7 7 6 5 5 6 7 9 11 12 13 14 16 17 18 19 20 21 20 19 19 20 20 19 20 21 23 23 23 23 24 25 24 22 21 21 19 18 17 15
8 7 7 7 5 4 5 5 6 7 8 10 9 9 10 11 12 15 18 20 21 21 21 22 22 23 22 21 22 23 24 24 23 23 25 24 23 22 20 19 18 17
8 7 7 6 5 5 4 4 4 5 7 9 9 9 10 10 12 14 16 18 20 21 22 23 23 24 24 23 22 22 24 25 24 23 25 26 24 23 22 20 19 18
8 6 5 5 6 5 3 2 2 2 2 5 7 7 8 10 13 15 16 16 17 18 19 20 20 21 22 23 24 24 24 26 25 23 25 27 26 24 23 21 19 18
7 5 4 5 6 4 2 1 1 1 2 3 5 5 5 6 8 11 12 13 15 16 16 16 17 17 18 20 21 23 24 25 25 24 26 28 26 24 23 21 19 17
5 4 4 4 5 4 2 1 2 2 3 4 5 6 6 7 8 9 10 11 13 13 13 14 15 16 16 16 17 19 21 23 23 23 26 26 23 21 20 19 17 17
5 6 6 4 4 3 2 2 2 3 4 5 6 7 8 9 10 11 11 12 13 14 14 15 15 15 15 16 16 16 17 18 20 21 23 22 20 19 19 17 16 16
5 6 7 6 5 4 4 4 4 5 5 6 6 8 8 9 11 12 13 14 14 14 15 16 15 15 15 15 14 14 15 18 20 20 20 20 19 18 18 17 16 15
5 5 6 6 6 6 6 6 6 6 6 6 8 9 10 11 12 12 13 14 15 15 15 16 16 15 14 14 13 13 16 19 20 19 19 19 17 16 16 16 14 11
5 4 5 6 7 7 8 8 7 8 8 8 9 11 12 13 14 14 14 14 15 15 15 14 14 13 13 12 12 14 18 19 19 19 18 17 15 13 12 10 8 6
4 5 6 6 7 8 9 9 10 11 11 10 11 12 13 14 15 16 15 14 14 13 12 11 11 11 11 12 13 16 18 18 18 18 17 14 12 10 7 6 6 7
9 9 10 10 11 13 13 14 14 13 12 12 11 12 14 15 14 12 11 9 9 9 9 9 9 11 12 13 16 17 17 16 16 16 14 12 11 10 9 7 6 6
Wind_Direction
167 164 164 161 156 156 153 149 153 155 156 155 148 144 139 130 125 123 126 126 118 115 117 123 123 115 111 115 107 102 105 101 97 95 94 103 111 115 110 95 92 91
167 164 162 160 157 159 158 154 156 159 163 163 157 152 148 141 139 142 146 141 133 127 122 123 124 120 115 112 109 112 112 105 102 99 94 98 105 114 114 99 90 84
167 162 160 160 161 162 163 159 157 158 163 165 164 162 159 153 151 158 166 162 151 146 137 133 132 134 136 132 123 115 117 113 110 114 105 99 106 117 125 117 103 92
170 164 159 160 164 164 163 164 162 158 158 165 169 168 165 163 162 167 176 178 177 171 162 153 148 151 157 153 151 139 134 138 140 139 129 117 121 120 127 132 122 111
176 172 167 166 170 169 166 164 164 161 159 162 168 171 171 171 171 175 183 187 193 197 193 184 166 165 172 167 168 173 164 166 166 149 145 150 158 142 129 136 134 130
180 178 176 176 177 177 173 165 160 163 166 168 171 174 176 181 182 183 188 194 201 209 210 208 190 180 190 187 180 187 187 186 184 168 174 186 170 159 139 132 135 139
181 177 174 170 167 172 174 167 158 158 163 171 176 178 182 189 194 196 202 204 206 214 219 221 214 198 200 202 198 203 205 206 204 188 193 208 185 175 180 151 143 165
185 182 177 168 159 163 166 166 165 161 159 164 172 182 192 198 203 209 214 214 212 217 221 225 227 217 208 209 209 211 215 218 217 202 201 213 207 197 205 204 189 201
180 179 180 180 176 173 174 174 175 176 175 172 171 178 191 203 212 218 219 216 216 219 221 224 228 226 220 219 218 217 220 224 224 217 211 216 217 213 214 217 208 201
169 169 170 177 185 190 194 193 189 190 193 192 189 188 192 199 206 212 215 217 220 222 222 222 225 226 225 224 224 222 222 224 225 223 218 218 221 219 219 223 220 211
168 178 182 191 197 198 200 202 202 202 202 202 204 206 207 207 207 208 210 213 219 223 225 226 229 229 227 226 226 224 222 221 223 224 223 222 224 222 221 225 225 220
155 172 191 207 215 211 206 207 213 215 214 214 217 218 219 222 225 225 222 218 220 226 230 233 232 228 226 224 224 224 222 220 220 223 225 224 224 224 224 226 224 219
153 156 166 184 203 212 210 211 217 220 221 223 229 233 234 236 236 233 234 242 249 248 243 241 237 231 228 225 224 224 223 223 222 221 223 223 223 223 222 220 214 207
158 162 162 166 178 194 204 211 216 222 226 230 238 244 246 247 245 243 250 261 266 260 248 247 250 242 235 234 232 227 222 225 226 222 219 219 218 218 217 214 211 209
145 151 153 152 160 176 191 202 209 218 226 233 242 246 249 253 254 254 259 263 265 261 251 248 251 250 245 244 242 235 225 223 227 226 220 216 213 212 212 211 213 217
145 148 148 149 158 172 185 201 214 224 230 235 243 250 255 259 260 259 260 261 261 260 255 251 250 251 250 248 247 244 235 226 225 226 222 216 212 208 206 209 213 216
151 149 156 164 166 158 162 189 208 221 231 237 245 255 261 260 258 257 257 259 260 260 257 255 254 255 253 250 247 248 245 236 231 228 221 216 212 206 204 206 208 210
145 140 142 153 156 151 152 169 174 182 225 245 256 266 268 263 261 259 257 256 256 257 259 261 262 261 259 257 254 254 253 245 237 232 222 215 210 206 205 205 206 210
144 143 127 127 139 146 149 159 197 263 286 292 293 295 292 285 278 272 265 259 254 254 259 265 270 270 266 264 263 261 256 247 240 234 222 212 205 202 202 204 208 212
165 169 153 138 141 143 144 187 257 274 290 298 298 296 293 291 293 289 280 270 265 263 265 268 271 273 270 269 271 269 260 249 240 228 214 205 201 199 202 206 210 214
198 193 186 187 190 197 214 238 257 270 278 282 284 285 285 281 282 285 284 279 273 269 269 270 270 271 270 270 271 271 261 242 225 211 201 196 195 197 198 200 201 204
224 201 190 193 200 208 219 228 246 260 266 271 275 277 280 281 280 279 280 282 281 275 268 265 264 265 266 264 264 262 246 223 209 199 192 188 187 190 192 192 192 193
236 211 200 205 209 216 229 236 244 253 258 265 273 276 278 280 282 282 280 279 281 281 273 261 254 253 255 255 254 246 227 212 201 192 185 182 179 182 187 190 192 199
231 226 228 229 224 225 233 236 241 252 260 263 270 278 279 279 282 287 285 277 273 275 271 258 246 242 243 243 236 224 213 203 193 184 178 175 175 175 181 189 203 223
248 250 249 245 237 235 239 245 251 258 259 259 266 275 281 283 284 285 281 273 266 263 256 243 232 227 225 222 214 207 203 196 186 179 173 171 175 177 180 198 222 231
264 263 260 257 254 252 253 254 256 257 256 258 266 275 283 287 286 280 270 255 245 240 229 218 213 204 198 200 201 199 196 191 184 180 176 172 170 168 164 172 198 214